Starlink 31042

operational
NORAD ID: 58739 Int'l Des: 2024-005 Owner: SPXS Country: US Constellation: starlink
LEOCIRCULAR

关于 Starlink 31042

正在加载描述...

实时位置

正在加载3D地球...

即将过境

高度历史

Altitude vs Time

uPlot chart will show altitude changes over time

两行轨道根数

1 58739U 24005M 25305.41389410 -.00006331 00000-0 -45364-3 0 9998
2 58739 43.0018 198.7988 0001211 265.9886 94.0818 15.02569502101129
Epoch: Nov 1, 2025 • Age: 25 hours

当前状态

高度 571.5 km
速度 7.58 km/s
星下点 -43.13°S, 107.12°W
发射日期 Jan 7, 2024
运行时间 1.8 years
类型 internet

技术详情

分类 Payload
质量 730.00 kg
干质量 700.00 kg
总质量 730.00 kg
长度 0.30 m
直径 4.10 m
跨度 29.00 m
形状 Box + pan
制造商 SPXS
平台类型 Starlink V2M
阶段状态 In Orbit
所有者/国家 SPXS/US

大型星座

Loading constellations...